sat.trackr.live / text

‹ back to catalog

LEMUR-2-ROUNDTRIPPER

NORAD 62711 · 2025-009DG

PAYLOAD ACTIVE UNKNOWN

§ Identity

Operator
Country
US
Launch date
2025-01-14
Launch site
AFWTR
Launch vehicle
Mass (kg)
RCS (m²)

Purposes: earth_obs

External: N2YO · Heavens-Above · Gunter

§ Orbital elements

Epoch: 2026-05-25T03:13:13.183104Z

Period
95.79 min
Inclination
97.7230°
Eccentricity
0.0003532
Mean motion
15.03348739 rev/d
Perigee alt
554.1 km
Apogee alt
559.0 km
Semi-major
6,934.7 km
B*
5.1886e-4
RAAN
227.8571°
Arg perigee
193.2294°
Mean anomaly
166.8839°
Rev number
7,416

§ Raw data

LEMUR-2-ROUNDTRIPPER1 62711U 25009DG  26145.13418036  .00006988  00000+0  51886-3 0  99982 62711  97.7230 227.8571 0003532 193.2294 166.8839 15.03348739 74164

JSON: /api/v1/satellites/62711 · /tle

For live sub-satellite position, see the globe view (requires WebGL).

§ Visibility from observer

Set your observer location to see the next 7 days of passes ≥ 10°. The values pass through the URL so the page stays shareable.

No JS? Fill the form by hand. The geolocation button needs JavaScript.